Date,TemperatureHighF,TemperatureAvgF,TemperatureLowF,DewpointHighF,DewpointAvgF,DewpointLowF,HumidityHigh,HumidityAvg,HumidityLow,PressureMaxIn,PressureMinIn,WindSpeedMaxMPH,WindSpeedAvgMPH,GustSpeedMaxMPH,PrecipitationSumIn
2014-1-1,26.7,22.8,19.0,14.0,10.3,8.0,67,55,47,30.36,30.15,28,7,29,0.12
2014-1-2,29.0,24.6,20.2,29.0,22.9,11.0,97,91,55,30.32,29.61,39,8,39,0.00
2014-1-3,24.5,12.5,1.4,26.0,9.7,-6.0,98,84,62,30.36,29.46,38,9,38,0.18
2014-1-4,34.4,17.9,0.8,31.0,13.4,-6.0,86,77,61,30.50,30.27,25,6,25,0.00
2014-1-5,43.0,33.7,25.3,43.0,31.1,23.0,99,89,81,30.34,29.94,23,5,23,0.03
2014-1-6,57.2,44.2,27.4,57.0,43.3,18.0,100,97,67,29.94,29.36,36,9,36,0.27
2014-1-7,28.2,13.9,6.8,23.0,3.5,-6.0,82,58,46,30.24,29.50,44,12,44,0.29
2014-1-8,19.8,13.6,6.8,11.0,3.4,-6.0,67,59,51,30.46,30.23,26,7,29,0.00
2014-1-9,27.4,20.4,15.8,14.0,8.9,4.0,71,58,45,30.63,30.40,20,5,20,0.00
2014-1-10,41.6,31.5,19.5,42.0,28.9,11.0,100,89,65,30.59,30.27,14,4,14,0.05
2014-1-11,59.5,50.5,41.7,59.0,50.0,42.0,100,99,92,30.27,29.35,44,9,44,0.76
2014-1-12,50.5,39.7,32.9,50.0,33.8,24.0,100,79,60,29.98,29.34,27,9,27,0.26
2014-1-13,47.7,38.5,30.9,44.0,33.6,24.0,89,82,72,30.17,29.96,24,6,24,0.00
2014-1-14,51.7,47.5,39.7,51.0,45.7,40.0,100,94,82,29.96,29.60,20,6,24,1.05
2014-1-15,44.8,38.9,34.9,40.0,37.3,35.0,100,94,75,30.05,29.76,13,3,14,0.00
2014-1-16,40.0,37.3,35.0,40.0,37.4,35.0,100,100,100,29.92,29.83,11,2,11,0.00
2014-1-17,38.4,35.7,31.4,38.0,34.2,29.0,100,94,81,30.01,29.91,15,4,15,0.00
2014-1-18,38.4,35.2,31.8,38.0,35.0,32.0,100,98,91,29.92,29.57,19,4,19,0.33
2014-1-19,33.7,30.9,28.5,32.0,27.0,24.0,99,85,73,29.74,29.58,36,10,36,0.56
2014-1-20,39.0,34.8,28.7,32.0,28.4,18.0,88,76,60,29.84,29.52,27,8,27,0.01
2014-1-21,28.5,18.5,12.9,18.0,11.7,4.0,94,73,47,30.01,29.71,26,6,27,0.00
2014-1-22,20.5,14.1,6.8,18.0,10.8,0.0,95,82,59,29.84,29.50,32,9,32,0.00
2014-1-23,19.8,10.4,3.1,11.0,1.1,-6.0,72,60,45,30.14,29.83,29,8,32,0.10
2014-1-24,18.7,11.3,5.5,14.0,1.0,-6.0,74,57,43,30.22,30.06,28,8,28,0.01
2014-1-25,37.7,29.5,18.7,31.0,23.8,14.0,97,78,68,30.07,29.34,32,8,32,0.00
2014-1-26,24.0,19.2,14.7,21.0,10.7,0.0,88,66,45,29.89,29.35,33,9,33,0.13
2014-1-27,46.7,34.9,20.9,40.0,27.9,4.0,91,76,42,29.96,29.59,20,8,32,0.00
2014-1-28,20.8,15.6,10.2,4.0,-2.7,-6.0,49,40,29,30.28,29.94,28,6,28,0.00
2014-1-29,21.3,16.1,11.2,16.0,8.0,0.0,91,68,45,30.20,29.98,24,5,26,0.00
2014-1-30,26.8,19.8,13.3,23.0,8.6,0.0,84,59,45,30.43,30.20,19,5,19,0.00
2014-1-31,35.2,30.5,26.9,32.0,25.5,21.0,92,81,65,30.21,30.04,18,5,18,0.01